Worthington, MN

8:40 PM CST on December 14, 2019 (GMT -0600)
Worthington Municipal

Weather History for KOTG - October, 2019

Change the Weather History Date:

Tuesday, October 29, 2019

  Actual Average Record
Temperature  
Mean Temperature 28 °F -  
Max Temperature 36 °F 48 °F 73 °F (2004)
Min Temperature 21 °F 32 °F 18 °F (1972)
Degree Days  
Heating Degree Days 36    
Moisture  
Dew Point 18 °F    
Average Humidity 70    
Maximum Humidity 88    
Minimum Humidity 52    
Precipitation  
Precipitation 0.00 in - - ()
Sea Level Pressure  
Sea Level Pressure 30.32 in    
Wind  
Wind Speed 7 mph (NW)    
Max Wind Speed 14 mph    
Max Gust Speed -    
Visibility 10 miles    
Events      
Averages and records for this station are not official NWS values.
T = Trace of Precipitation, MM = Missing Value Source: NWS Daily Summary

Daily Weather History Graph

Daily Weather History Graph

Search for Another Location

Airport or City:

Astronomy

Oct. 29, 2019 Rise Set
Actual Time 7:53 AM CDT 6:17 PM CDT
Civil Twilight 7:24 AM CDT 6:47 PM CDT
Nautical Twilight 6:50 AM CDT 7:20 PM CDT
Astronomical Twilight 6:17 AM CDT 7:54 PM CDT
Moon 9:30 AM CDT (10/29) 7:39 PM CDT (10/29)
Length of Visible Light 11h 22m
Length of Day
10h 23m
Waxing Crescent, 3% of the Moon is Illuminated
Oct 29
Waxing Crescent
Nov 4
First Quarter
Nov 12
Full
Nov 19
Last Quarter
Nov 26
New

Hourly Weather History & Observations

Time (CDT) Temp. Windchill Dew Point Humidity Pressure Visibility Wind Dir Wind Speed Gust Speed Precip Events Conditions
12:56 AM 26.1 °F 20.5 °F 19.0 °F 75% 30.20 in 10.0 mi WSW 4.6 mph - N/A   Clear
1:56 AM 25.0 °F 19.3 °F 19.0 °F 78% 30.18 in 10.0 mi WSW 4.6 mph - N/A   Clear
2:56 AM 24.1 °F 16.0 °F 18.0 °F 77% 30.19 in 10.0 mi WSW 6.9 mph - N/A   Clear
3:56 AM 24.1 °F 14.4 °F 19.0 °F 81% 30.22 in 10.0 mi WSW 9.2 mph - N/A   Clear
4:56 AM 21.9 °F 14.5 °F 18.0 °F 85% 30.23 in 10.0 mi West 5.8 mph - N/A   Clear
5:56 AM 21.0 °F 12.4 °F 18.0 °F 88% 30.25 in 10.0 mi West 6.9 mph - N/A   Clear
6:56 AM 21.9 °F 15.7 °F 18.0 °F 85% 30.26 in 10.0 mi NW 4.6 mph - N/A   Clear
7:56 AM 24.1 °F 16.0 °F 19.0 °F 81% 30.26 in 10.0 mi NNW 6.9 mph - N/A   Clear
8:56 AM 26.1 °F 17.6 °F 19.0 °F 75% 30.31 in 10.0 mi NNW 8.1 mph - N/A   Mostly Cloudy
9:56 AM 27.0 °F 15.6 °F 18.0 °F 69% 30.34 in 10.0 mi North 13.8 mph - N/A   Partly Cloudy
10:56 AM 30.0 °F 20.5 °F 18.0 °F 61% 30.35 in 10.0 mi North 11.5 mph - N/A   Partly Cloudy
11:56 AM 33.1 °F 24.9 °F 18.0 °F 54% 30.35 in 10.0 mi NNW 10.4 mph - N/A   Clear
12:56 PM 34.0 °F 25.5 °F 18.0 °F 52% 30.35 in 10.0 mi NNW 11.5 mph - N/A   Clear
1:56 PM 35.1 °F 27.9 °F 19.0 °F 52% 30.33 in 10.0 mi NNW 9.2 mph - N/A   Clear
2:56 PM 36.0 °F 29.0 °F 21.0 °F 55% 30.33 in 10.0 mi NNW 9.2 mph - N/A   Mostly Cloudy
3:56 PM 35.1 °F 28.6 °F 21.9 °F 59% 30.34 in 10.0 mi North 8.1 mph - N/A   Overcast
4:56 PM 34.0 °F 25.5 °F 19.9 °F 56% 30.35 in 10.0 mi WNW 11.5 mph - N/A   Mostly Cloudy
5:56 PM 33.1 °F 24.4 °F 19.9 °F 59% 30.37 in 10.0 mi WNW 11.5 mph - N/A   Overcast
6:56 PM 30.0 °F 23.2 °F 19.9 °F 66% 30.38 in 10.0 mi WNW 6.9 mph - N/A   Clear
7:56 PM 28.9 °F 21.1 °F 19.0 °F 67% 30.40 in 10.0 mi WNW 8.1 mph - N/A   Partly Cloudy
8:56 PM 25.0 °F 16.3 °F 17.1 °F 72% 30.42 in 10.0 mi WNW 8.1 mph - N/A   Clear
9:56 PM 24.1 °F 15.2 °F 16.0 °F 71% 30.44 in 10.0 mi WNW 8.1 mph - N/A   Clear
10:56 PM 23.0 °F 13.9 °F 15.1 °F 72% 30.45 in 10.0 mi NW 8.1 mph - N/A   Clear
11:56 PM 21.0 °F 13.4 °F 15.1 °F 78% 30.45 in 10.0 mi WNW 5.8 mph - N/A   Clear